TimePDT,TemperatureF,Dew PointF,Humidity,Sea Level PressureIn,VisibilityMPH,Wind Direction,Wind SpeedMPH,Gust SpeedMPH,PrecipitationIn,Events,Conditions,WindDirDegrees,DateUTC
12:50 AM,52.0,36.9,56,29.86,15.0,NNW,5.8,-,N/A,,Clear,340,2012-10-11 07:50:00
1:50 AM,48.4,36.9,64,29.88,15.0,South,5.8,-,N/A,,Clear,180,2012-10-11 08:50:00
2:50 AM,48.0,37.9,68,29.89,15.0,South,4.6,-,N/A,,Clear,190,2012-10-11 09:50:00
3:50 AM,45.0,34.5,67,29.90,15.0,WNW,4.6,-,N/A,,Clear,300,2012-10-11 10:50:00
4:50 AM,45.3,37.6,74,29.91,15.0,NW,4.6,-,N/A,,Clear,310,2012-10-11 11:50:00
5:50 AM,44.8,39.2,81,29.92,15.0,WSW,4.6,-,N/A,,Clear,250,2012-10-11 12:50:00
6:50 AM,41.5,36.7,83,29.93,15.0,WSW,2.3,-,N/A,,Clear,240,2012-10-11 13:50:00
7:50 AM,45.5,39.9,81,29.94,15.0,South,5.8,-,N/A,,Clear,170,2012-10-11 14:50:00
8:50 AM,54.3,41.2,61,29.96,15.0,SSE,2.3,-,N/A,,Clear,150,2012-10-11 15:50:00
9:50 AM,58.8,40.6,51,29.95,15.0,ESE,3.5,-,N/A,,Partly Cloudy,120,2012-10-11 16:50:00
10:50 AM,61.9,41.4,47,29.93,15.0,SE,3.5,-,N/A,,Partly Cloudy,130,2012-10-11 17:50:00
11:50 AM,67.3,41.0,38,29.93,15.0,North,3.5,-,N/A,,Partly Cloudy,350,2012-10-11 18:50:00
12:50 PM,69.4,41.0,36,29.91,15.0,WNW,4.6,-,N/A,,Partly Cloudy,300,2012-10-11 19:50:00
1:50 PM,72.7,40.5,31,29.89,15.0,SSW,2.3,-,N/A,,Partly Cloudy,200,2012-10-11 20:50:00
2:50 PM,74.7,40.3,29,29.86,15.0,East,5.8,-,N/A,,Partly Cloudy,100,2012-10-11 21:50:00
3:50 PM,74.5,39.9,29,29.85,15.0,North,4.6,-,N/A,,Partly Cloudy,10,2012-10-11 22:50:00
4:50 PM,73.4,39.6,29,29.81,15.0,ESE,4.6,-,N/A,,Partly Cloudy,120,2012-10-11 23:50:00
5:50 PM,68.9,38.8,33,29.80,15.0,SE,4.6,-,N/A,,Partly Cloudy,130,2012-10-12 00:50:00
6:50 PM,61.7,38.5,42,29.78,15.0,SSE,4.6,-,N/A,,Partly Cloudy,150,2012-10-12 01:50:00
10:50 PM,52.2,37.2,57,29.76,15.0,WSW,4.6,-,N/A,,Clear,250,2012-10-12 05:50:00
11:50 PM,47.7,34.0,59,29.75,15.0,NW,4.6,-,N/A,,Clear,310,2012-10-12 06:50:00